| time (UTC) | temp C | wind direction | speed KPH | gust KPH | rain 1hr cm | rain 24hr cm | rain mn cm | humidity % | barometer mb |
| 20260506003110 | 19 | 65 | 0.0 | 1.6 | 0.00 | 0.00 | 0.00 | 65 | 1010.0 |
| 20260506002606 | 20 | 55 | 0.0 | 0.0 | 0.00 | 0.00 | 0.00 | 65 | 1010.0 |
| 20260506002102 | 20 | 130 | 1.6 | 3.2 | 0.00 | 0.00 | 0.00 | 64 | 1010.0 |
| 20260506001559 | 20 | 131 | 1.6 | 1.6 | 0.00 | 0.00 | 0.00 | 64 | 1009.8 |
| 20260506001056 | 20 | 119 | 0.0 | 0.0 | 0.00 | 0.00 | 0.00 | 63 | 1009.8 |
| 20260506000553 | 20 | 60 | 0.0 | 1.6 | 0.00 | 0.00 | 0.00 | 63 | 1009.7 |
| 20260506000050 | 20 | 164 | 0.0 | 0.0 | 0.00 | 0.00 | 0.00 | 62 | 1009.8 |
| 20260505235548 | 21 | 164 | 0.0 | 1.6 | 0.00 | 0.00 | 0.00 | 61 | 1009.7 |
| 20260505235045 | 21 | 177 | 3.2 | 3.2 | 0.00 | 0.00 | 0.00 | 61 | 1009.7 |
| 20260505234542 | 21 | 173 | 1.6 | 3.2 | 0.00 | 0.00 | 0.00 | 61 | 1009.7 |
| 20260505234039 | 21 | 240 | 0.0 | 3.2 | 0.00 | 0.00 | 0.00 | 62 | 1009.6 |
| 20260505233536 | 21 | 304 | 0.0 | 3.2 | 0.00 | 0.00 | 0.00 | 62 | 1009.7 |
| 20260505233034 | 21 | 318 | 0.0 | 0.0 | 0.00 | 0.00 | 0.00 | 62 | 1009.8 |
| 20260505232531 | 21 | 230 | 0.0 | 0.0 | 0.00 | 0.00 | 0.00 | 61 | 1009.4 |
| 20260505232028 | 21 | 217 | 0.0 | 0.0 | 0.00 | 0.00 | 0.00 | 60 | 1009.7 |
| 20260505231525 | 21 | 217 | 3.2 | 4.8 | 0.00 | 0.00 | 0.00 | 58 | 1009.5 |
| 20260505231024 | 22 | 244 | 3.2 | 4.8 | 0.00 | 0.00 | 0.00 | 58 | 1009.5 |
| 20260505230521 | 22 | 209 | 0.0 | 4.8 | 0.00 | 0.00 | 0.00 | 56 | 1009.5 |
| 20260505230018 | 22 | 245 | 0.0 | 6.4 | 0.00 | 0.00 | 0.00 | 55 | 1009.2 |
| 20260505225514 | 22 | 196 | 4.8 | 8.0 | 0.00 | 0.00 | 0.00 | 54 | 1009.2 |
| 20260505225010 | 23 | 215 | 3.2 | 4.8 | 0.00 | 0.00 | 0.00 | 53 | 1009.5 |
| 20260505224508 | 23 | 187 | 1.6 | 4.8 | 0.00 | 0.00 | 0.00 | 51 | 1009.4 |
| 20260505224005 | 23 | 273 | 4.8 | 8.0 | 0.00 | 0.00 | 0.00 | 51 | 1009.4 |
| 20260505223502 | 23 | 284 | 1.6 | 6.4 | 0.00 | 0.00 | 0.00 | 51 | 1009.4 |
| 20260505222958 | 23 | 299 | 4.8 | 4.8 | 0.00 | 0.00 | 0.00 | 50 | 1009.5 |
| 20260505222454 | 23 | 83 | 1.6 | 9.7 | 0.00 | 0.00 | 0.00 | 49 | 1009.3 |
| 20260505221950 | 23 | 306 | 8.0 | 9.7 | 0.00 | 0.00 | 0.00 | 47 | 1009.4 |
| 20260505221448 | 23 | 206 | 6.4 | 6.4 | 0.00 | 0.00 | 0.00 | 46 | 1009.1 |
| 20260505220944 | 24 | 5 | 4.8 | 9.7 | 0.00 | 0.00 | 0.00 | 45 | 1009.1 |
| 20260505220441 | 24 | 301 | 4.8 | 9.7 | 0.00 | 0.00 | 0.00 | 44 | 1008.9 |
| 20260505215939 | 25 | 345 | 4.8 | 11.3 | 0.00 | 0.00 | 0.00 | 43 | 1008.9 |
| 20260505215437 | 25 | 237 | 3.2 | 4.8 | 0.00 | 0.00 | 0.00 | 43 | 1008.9 |
| 20260505214935 | 25 | 192 | 1.6 | 6.4 | 0.00 | 0.00 | 0.00 | 41 | 1008.7 |
| 20260505214432 | 25 | 189 | 3.2 | 8.0 | 0.00 | 0.00 | 0.00 | 41 | 1008.8 |
| 20260505213929 | 25 | 219 | 3.2 | 6.4 | 0.00 | 0.00 | 0.00 | 41 | 1008.6 |
| 20260505213427 | 25 | 229 | 0.0 | 4.8 | 0.00 | 0.00 | 0.00 | 41 | 1008.6 |
| 20260505212923 | 25 | 188 | 3.2 | 8.0 | 0.00 | 0.00 | 0.00 | 40 | 1008.3 |
| 20260505212420 | 26 | 207 | 3.2 | 12.9 | 0.00 | 0.00 | 0.00 | 40 | 1008.3 |
| 20260505211916 | 26 | 222 | 4.8 | 14.5 | 0.00 | 0.00 | 0.00 | 40 | 1008.2 |
| 20260505211414 | 26 | 262 | 6.4 | 16.1 | 0.00 | 0.00 | 0.00 | 38 | 1008.2 |
| 20260505210910 | 26 | 216 | 8.0 | 17.7 | 0.00 | 0.00 | 0.00 | 38 | 1008.2 |
| 20260505210408 | 26 | 214 | 3.2 | 9.7 | 0.00 | 0.00 | 0.00 | 38 | 1008.2 |
| 20260505205904 | 27 | 225 | 9.7 | 14.5 | 0.00 | 0.00 | 0.00 | 37 | 1008.1 |
| 20260505205403 | 27 | 203 | 6.4 | 14.5 | 0.00 | 0.00 | 0.00 | 35 | 1008.2 |
| 20260505204859 | 27 | 315 | 1.6 | 17.7 | 0.00 | 0.00 | 0.00 | 39 | 1008.3 |
| 20260505204357 | 26 | 230 | 6.4 | 25.7 | 0.00 | 0.00 | 0.00 | 36 | 1008.4 |
| 20260505203854 | 26 | 200 | 1.6 | 19.3 | 0.00 | 0.00 | 0.00 | 39 | 1008.5 |
| 20260505203350 | 26 | 233 | 6.4 | 16.1 | 0.00 | 0.00 | 0.00 | 37 | 1008.4 |
| 20260505202847 | 26 | 248 | 1.6 | 11.3 | 0.00 | 0.00 | 0.00 | 39 | 1008.6 |
| 20260505202343 | 26 | 204 | 4.8 | 9.7 | 0.00 | 0.00 | 0.00 | 37 | 1008.4 |
| 20260505201840 | 26 | 218 | 9.7 | 24.1 | 0.00 | 0.00 | 0.00 | 35 | 1008.3 |
| 20260505201337 | 26 | 216 | 9.7 | 19.3 | 0.00 | 0.00 | 0.00 | 36 | 1008.6 |
| 20260505200835 | 26 | 213 | 8.0 | 24.1 | 0.00 | 0.00 | 0.00 | 36 | 1008.2 |
| 20260505200332 | 26 | 217 | 17.7 | 20.9 | 0.00 | 0.00 | 0.00 | 34 | 1008.4 |
| 20260505195828 | 26 | 205 | 20.9 | 30.6 | 0.00 | 0.00 | 0.00 | 35 | 1008.5 |
| 20260505195325 | 26 | 213 | 17.7 | 24.1 | 0.00 | 0.00 | 0.00 | 35 | 1008.5 |
| 20260505194822 | 26 | 214 | 16.1 | 27.4 | 0.00 | 0.00 | 0.00 | 35 | 1008.5 |
| 20260505194319 | 27 | 219 | 22.5 | 27.4 | 0.00 | 0.00 | 0.00 | 35 | 1008.5 |
| 20260505193814 | 27 | 221 | 14.5 | 32.2 | 0.00 | 0.00 | 0.00 | 34 | 1008.3 |
| 20260505193312 | 27 | 209 | 11.3 | 20.9 | 0.00 | 0.00 | 0.00 | 36 | 1008.4 |
| 20260505192810 | 26 | 215 | 20.9 | 30.6 | 0.00 | 0.00 | 0.00 | 36 | 1008.5 |
| 20260505192310 | 26 | 207 | 25.7 | 45.1 | 0.00 | 0.00 | 0.00 | 36 | 1008.3 |
| 20260505191806 | 27 | 195 | 20.9 | 37.0 | 0.00 | 0.00 | 0.00 | 36 | 1008.4 |
| 20260505191304 | 27 | 209 | 20.9 | 41.8 | 0.00 | 0.00 | 0.00 | 35 | 1008.2 |
| 20260505190800 | 27 | 215 | 24.1 | 25.7 | 0.00 | 0.00 | 0.00 | 37 | 1008.1 |
| 20260505190255 | 27 | 225 | 22.5 | 32.2 | 0.00 | 0.00 | 0.00 | 37 | 1008.6 |
| 20260505185752 | 27 | 213 | 27.4 | 30.6 | 0.00 | 0.00 | 0.00 | 36 | 1008.3 |
| 20260505185248 | 28 | 227 | 35.4 | 46.7 | 0.00 | 0.00 | 0.00 | 34 | 1008.6 |
| 20260505184744 | 27 | 229 | 19.3 | 37.0 | 0.00 | 0.00 | 0.00 | 36 | 1008.7 |
| 20260505184242 | 28 | 204 | 16.1 | 33.8 | 0.00 | 0.00 | 0.00 | 37 | 1008.8 |
| 20260505183738 | 27 | 212 | 14.5 | 30.6 | 0.00 | 0.00 | 0.00 | 38 | 1008.8 |
| 20260505183236 | 27 | 167 | 14.5 | 27.4 | 0.00 | 0.00 | 0.00 | 39 | 1008.8 |
| 20260505182732 | 28 | 193 | 12.9 | 20.9 | 0.00 | 0.00 | 0.00 | 40 | 1008.9 |
| 20260505182229 | 27 | 202 | 22.5 | 29.0 | 0.00 | 0.00 | 0.00 | 38 | 1009.1 |
| 20260505181725 | 27 | 205 | 9.7 | 33.8 | 0.00 | 0.00 | 0.00 | 40 | 1009.4 |
| 20260505181223 | 26 | 212 | 12.9 | 27.4 | 0.00 | 0.00 | 0.00 | 41 | 1009.4 |
| 20260505180719 | 27 | 199 | 16.1 | 33.8 | 0.00 | 0.00 | 0.00 | 39 | 1009.5 |
| 20260505180216 | 27 | 207 | 16.1 | 17.7 | 0.00 | 0.00 | 0.00 | 39 | 1009.4 |
| 20260505175712 | 27 | 168 | 8.0 | 22.5 | 0.00 | 0.00 | 0.00 | 39 | 1009.6 |
| 20260505175209 | 26 | 189 | 22.5 | 25.7 | 0.00 | 0.00 | 0.00 | 39 | 1009.8 |
| 20260505174705 | 26 | 191 | 14.5 | 30.6 | 0.00 | 0.00 | 0.00 | 40 | 1009.7 |
| 20260505174202 | 26 | 207 | 8.0 | 19.3 | 0.00 | 0.00 | 0.00 | 41 | 1009.9 |
| 20260505173658 | 26 | 211 | 14.5 | 25.7 | 0.00 | 0.00 | 0.00 | 41 | 1009.8 |
| 20260505173155 | 26 | 200 | 19.3 | 25.7 | 0.00 | 0.00 | 0.00 | 42 | 1009.7 |
| 20260505172652 | 26 | 235 | 17.7 | 24.1 | 0.00 | 0.00 | 0.00 | 41 | 1009.5 |
| 20260505172149 | 26 | 202 | 9.7 | 19.3 | 0.00 | 0.00 | 0.00 | 44 | 1009.8 |
| 20260505171649 | 26 | 235 | 16.1 | 27.4 | 0.00 | 0.00 | 0.00 | 42 | 1009.8 |
| 20260505171146 | 26 | 189 | 8.0 | 27.4 | 0.00 | 0.00 | 0.00 | 42 | 1009.6 |
| 20260505170643 | 26 | 233 | 17.7 | 25.7 | 0.00 | 0.00 | 0.00 | 40 | 1009.8 |
| 20260505170140 | 26 | 216 | 12.9 | 27.4 | 0.00 | 0.00 | 0.00 | 43 | 1009.7 |
| 20260505165640 | 26 | 223 | 20.9 | 24.1 | 0.00 | 0.00 | 0.00 | 41 | 1010.0 |
| 20260505165137 | 26 | 197 | 17.7 | 35.4 | 0.00 | 0.00 | 0.00 | 42 | 1009.9 |
| 20260505164632 | 26 | 200 | 19.3 | 35.4 | 0.00 | 0.00 | 0.00 | 42 | 1010.0 |
| 20260505164130 | 26 | 204 | 22.5 | 32.2 | 0.00 | 0.00 | 0.00 | 41 | 1010.3 |
| 20260505163628 | 26 | 202 | 19.3 | 27.4 | 0.00 | 0.00 | 0.00 | 42 | 1010.2 |
| 20260505163125 | 25 | 215 | 16.1 | 24.1 | 0.00 | 0.00 | 0.00 | 44 | 1010.6 |
| 20260505162623 | 26 | 197 | 25.7 | 30.6 | 0.00 | 0.00 | 0.00 | 43 | 1010.4 |
| 20260505162120 | 25 | 200 | 14.5 | 37.0 | 0.00 | 0.00 | 0.00 | 43 | 1010.6 |
| 20260505161617 | 26 | 244 | 6.4 | 12.9 | 0.00 | 0.00 | 0.00 | 45 | 1010.6 |
| 20260505161114 | 25 | 190 | 11.3 | 32.2 | 0.00 | 0.00 | 0.00 | 43 | 1010.6 |
| 20260505160612 | 25 | 207 | 14.5 | 32.2 | 0.00 | 0.00 | 0.00 | 44 | 1010.7 |
| 20260505160109 | 26 | 182 | 14.5 | 32.2 | 0.00 | 0.00 | 0.00 | 44 | 1010.8 |
| 20260505153049 | 25 | 222 | 17.7 | 20.9 | 0.00 | 0.00 | 0.00 | 46 | 1011.3 |
| 20260505152545 | 24 | 216 | 14.5 | 30.6 | 0.00 | 0.00 | 0.00 | 48 | 1011.0 |
| 20260505152041 | 24 | 213 | 14.5 | 25.7 | 0.00 | 0.00 | 0.00 | 49 | 1011.2 |
| 20260505151536 | 24 | 204 | 14.5 | 19.3 | 0.00 | 0.00 | 0.00 | 49 | 1011.3 |
| 20260505151034 | 24 | 212 | 19.3 | 25.7 | 0.00 | 0.00 | 0.00 | 48 | 1011.2 |
| 20260505150530 | 23 | 245 | 8.0 | 29.0 | 0.00 | 0.00 | 0.00 | 50 | 1011.2 |
| 20260505140455 | 22 | 191 | 9.7 | 20.9 | 0.00 | 0.00 | 0.00 | 55 | 1011.1 |
| 20260505124909 | 20 | 163 | 3.2 | 8.0 | 0.00 | 0.00 | 0.00 | 62 | 1011.6 |
| 20260505124406 | 19 | 163 | 1.6 | 6.4 | 0.00 | 0.00 | 0.00 | 62 | 1011.8 |
| 20260505123902 | 18 | 196 | 6.4 | 14.5 | 0.00 | 0.00 | 0.00 | 63 | 1011.7 |
| 20260505123359 | 18 | 132 | 3.2 | 4.8 | 0.00 | 0.00 | 0.00 | 67 | 1011.9 |
| 20260505122854 | 18 | 177 | 4.8 | 4.8 | 0.00 | 0.00 | 0.00 | 68 | 1011.9 |
| 20260505122352 | 18 | 162 | 1.6 | 3.2 | 0.00 | 0.00 | 0.00 | 68 | 1012.0 |
| 20260505121848 | 18 | 94 | 1.6 | 4.8 | 0.00 | 0.00 | 0.00 | 67 | 1012.0 |
| 20260505121346 | 18 | 153 | 3.2 | 6.4 | 0.00 | 0.00 | 0.00 | 67 | 1011.9 |
| 20260505120842 | 18 | 154 | 3.2 | 4.8 | 0.00 | 0.00 | 0.00 | 66 | 1011.9 |
| 20260505120338 | 17 | 192 | 3.2 | 3.2 | 0.00 | 0.00 | 0.00 | 67 | 1012.0 |
| 20260505115837 | 17 | 122 | 3.2 | 9.7 | 0.00 | 0.00 | 0.00 | 68 | 1012.1 |
| 20260505115334 | 17 | 156 | 0.0 | 4.8 | 0.00 | 0.00 | 0.00 | 69 | 1011.8 |
| 20260505114832 | 17 | 164 | 1.6 | 3.2 | 0.00 | 0.00 | 0.00 | 69 | 1011.8 |
| 20260505114328 | 17 | 132 | 0.0 | 4.8 | 0.00 | 0.00 | 0.00 | 69 | 1011.7 |
| 20260505113825 | 16 | 138 | 3.2 | 4.8 | 0.00 | 0.00 | 0.00 | 70 | 1011.7 |
| 20260505113321 | 16 | 145 | 3.2 | 6.4 | 0.00 | 0.00 | 0.00 | 72 | 1011.6 |
| 20260505112817 | 15 | 168 | 0.0 | 4.8 | 0.00 | 0.00 | 0.00 | 77 | 1011.7 |
| 20260505112314 | 12 | 116 | 3.2 | 3.2 | 0.00 | 0.00 | 0.00 | 85 | 1011.6 |
| 20260505111810 | 12 | 89 | 0.0 | 3.2 | 0.00 | 0.00 | 0.00 | 83 | 1011.7 |
| 20260505111306 | 12 | 97 | 3.2 | 3.2 | 0.00 | 0.00 | 0.00 | 82 | 1011.6 |
| 20260505110802 | 12 | 23 | 0.0 | 1.6 | 0.00 | 0.00 | 0.00 | 82 | 1011.6 |
| 20260505110300 | 12 | 138 | 3.2 | 4.8 | 0.00 | 0.00 | 0.00 | 83 | 1011.4 |
| 20260505101733 | 15 | 95 | 3.2 | 4.8 | 0.00 | 0.00 | 0.00 | 70 | 1011.3 |
| 20260505101229 | 15 | 117 | 3.2 | 6.4 | 0.00 | 0.00 | 0.00 | 70 | 1011.4 |
| 20260505100726 | 15 | 172 | 4.8 | 6.4 | 0.00 | 0.00 | 0.00 | 70 | 1011.2 |
| 20260505100223 | 15 | 184 | 4.8 | 4.8 | 0.00 | 0.00 | 0.00 | 70 | 1011.0 |
| 20260505095723 | 16 | 181 | 6.4 | 9.7 | 0.00 | 0.00 | 0.00 | 69 | 1011.1 |
| 20260505095222 | 15 | 185 | 4.8 | 8.0 | 0.00 | 0.00 | 0.00 | 70 | 1011.3 |
| 20260505094717 | 15 | 158 | 3.2 | 6.4 | 0.00 | 0.00 | 0.00 | 71 | 1011.1 |
| 20260505094214 | 15 | 162 | 3.2 | 4.8 | 0.00 | 0.00 | 0.00 | 72 | 1010.8 |
| 20260505093710 | 15 | 142 | 3.2 | 4.8 | 0.00 | 0.00 | 0.00 | 72 | 1010.9 |
| 20260505093208 | 15 | 161 | 3.2 | 4.8 | 0.00 | 0.00 | 0.00 | 72 | 1010.9 |
| 20260505092704 | 15 | 161 | 3.2 | 4.8 | 0.00 | 0.00 | 0.00 | 71 | 1010.7 |
| 20260505092203 | 15 | 182 | 1.6 | 4.8 | 0.00 | 0.00 | 0.00 | 73 | 1010.7 |
| 20260505091700 | 13 | 0 | 0.0 | 3.2 | 0.00 | 0.00 | 0.00 | 75 | 1010.7 |
| 20260505091158 | 15 | 44 | 0.0 | 1.6 | 0.00 | 0.00 | 0.00 | 73 | 1010.6 |
| 20260505090655 | 15 | 89 | 1.6 | 4.8 | 0.00 | 0.00 | 0.00 | 72 | 1010.6 |
| 20260505090153 | 15 | 131 | 3.2 | 4.8 | 0.00 | 0.00 | 0.00 | 72 | 1010.5 |
| 20260505085650 | 15 | 145 | 3.2 | 3.2 | 0.00 | 0.00 | 0.00 | 72 | 1010.5 |
| 20260505085149 | 15 | 172 | 3.2 | 3.2 | 0.00 | 0.00 | 0.00 | 71 | 1010.7 |
| 20260505084646 | 15 | 146 | 1.6 | 1.6 | 0.00 | 0.00 | 0.00 | 72 | 1010.7 |
| 20260505084144 | 15 | 89 | 1.6 | 3.2 | 0.00 | 0.00 | 0.00 | 68 | 1010.7 |
| 20260505083641 | 16 | 160 | 1.6 | 3.2 | 0.00 | 0.00 | 0.00 | 67 | 1010.9 |
| 20260505083137 | 15 | 156 | 3.2 | 3.2 | 0.00 | 0.00 | 0.00 | 67 | 1010.8 |
| 20260505082633 | 16 | 143 | 3.2 | 4.8 | 0.00 | 0.00 | 0.00 | 67 | 1010.8 |
| 20260505082131 | 16 | 169 | 3.2 | 6.4 | 0.00 | 0.00 | 0.00 | 66 | 1010.6 |
| 20260505081626 | 16 | 161 | 4.8 | 4.8 | 0.00 | 0.00 | 0.00 | 65 | 1010.8 |
| 20260505081125 | 16 | 160 | 4.8 | 6.4 | 0.00 | 0.00 | 0.00 | 64 | 1010.6 |
| 20260505080621 | 16 | 154 | 3.2 | 8.0 | 0.00 | 0.00 | 0.00 | 63 | 1010.6 |
| 20260505080117 | 16 | 177 | 3.2 | 6.4 | 0.00 | 0.00 | 0.00 | 64 | 1010.6 |
| 20260505075613 | 16 | 157 | 3.2 | 4.8 | 0.00 | 0.00 | 0.00 | 64 | 1010.5 |
| 20260505075110 | 16 | 159 | 4.8 | 6.4 | 0.00 | 0.00 | 0.00 | 64 | 1010.5 |
| 20260505074607 | 16 | 132 | 4.8 | 6.4 | 0.00 | 0.00 | 0.00 | 65 | 1010.5 |
| 20260505074104 | 15 | 165 | 3.2 | 4.8 | 0.00 | 0.00 | 0.00 | 67 | 1010.2 |
| 20260505073601 | 15 | 75 | 0.0 | 3.2 | 0.00 | 0.00 | 0.00 | 69 | 1010.4 |
| 20260505073100 | 15 | 137 | 4.8 | 6.4 | 0.00 | 0.00 | 0.00 | 69 | 1010.4 |
| 20260505072555 | 15 | 106 | 3.2 | 3.2 | 0.00 | 0.00 | 0.00 | 70 | 1010.2 |
| 20260505072052 | 13 | 83 | 3.2 | 3.2 | 0.00 | 0.00 | 0.00 | 72 | 1010.2 |
| 20260505071547 | 13 | 72 | 1.6 | 1.6 | 0.00 | 0.00 | 0.00 | 73 | 1010.4 |
| 20260505071046 | 13 | 85 | 3.2 | 4.8 | 0.00 | 0.00 | 0.00 | 74 | 1010.2 |
| 20260505070543 | 12 | 332 | 1.6 | 3.2 | 0.00 | 0.00 | 0.00 | 82 | 1010.3 |
| 20260505070038 | 12 | 37 | 3.2 | 3.2 | 0.00 | 0.00 | 0.00 | 83 | 1010.3 |
| 20260505065535 | 12 | 66 | 0.0 | 3.2 | 0.00 | 0.00 | 0.00 | 82 | 1010.5 |
| 20260505065031 | 12 | 39 | 3.2 | 3.2 | 0.00 | 0.00 | 0.00 | 80 | 1010.4 |
| 20260505064528 | 12 | 55 | 1.6 | 3.2 | 0.00 | 0.00 | 0.00 | 82 | 1010.4 |
| 20260505064027 | 14 | 56 | 1.6 | 3.2 | 0.00 | 0.00 | 0.00 | 74 | 1010.4 |
| 20260505063524 | 15 | 108 | 3.2 | 4.8 | 0.00 | 0.00 | 0.00 | 67 | 1010.4 |
| 20260505063019 | 13 | 149 | 3.2 | 4.8 | 0.00 | 0.00 | 0.00 | 73 | 1010.3 |
| 20260505062516 | 12 | 50 | 0.0 | 3.2 | 0.00 | 0.00 | 0.00 | 83 | 1010.3 |
| 20260505062014 | 13 | 116 | 0.0 | 3.2 | 0.00 | 0.00 | 0.00 | 77 | 1010.4 |
| 20260505061511 | 13 | 124 | 3.2 | 4.8 | 0.00 | 0.00 | 0.00 | 72 | 1010.4 |
| 20260505061009 | 13 | 46 | 0.0 | 1.6 | 0.00 | 0.00 | 0.00 | 75 | 1010.6 |
| 20260505060506 | 13 | 137 | 0.0 | 3.2 | 0.00 | 0.00 | 0.00 | 72 | 1010.6 |
| 20260505060002 | 13 | 79 | 0.0 | 1.6 | 0.00 | 0.00 | 0.00 | 79 | 1010.7 |
| 20260505055458 | 13 | 55 | 0.0 | 1.6 | 0.00 | 0.00 | 0.00 | 76 | 1010.5 |
| 20260505054955 | 15 | 115 | 0.0 | 4.8 | 0.00 | 0.00 | 0.00 | 69 | 1010.7 |
| 20260505054452 | 15 | 165 | 3.2 | 3.2 | 0.00 | 0.00 | 0.00 | 66 | 1010.6 |
| 20260505053950 | 15 | 144 | 0.0 | 3.2 | 0.00 | 0.00 | 0.00 | 67 | 1010.6 |
| 20260505053447 | 15 | 150 | 3.2 | 3.2 | 0.00 | 0.00 | 0.00 | 66 | 1010.7 |
| 20260505052943 | 13 | 149 | 3.2 | 3.2 | 0.00 | 0.00 | 0.00 | 74 | 1010.7 |
| 20260505052441 | 14 | 38 | 0.0 | 3.2 | 0.00 | 0.00 | 0.00 | 73 | 1010.8 |
| 20260505051938 | 15 | 53 | 1.6 | 3.2 | 0.00 | 0.00 | 0.00 | 68 | 1010.6 |
| 20260505051435 | 14 | 132 | 3.2 | 3.2 | 0.00 | 0.00 | 0.00 | 73 | 1010.7 |
| 20260505050933 | 15 | 112 | 3.2 | 4.8 | 0.00 | 0.00 | 0.00 | 65 | 1010.7 |
| 20260505050431 | 14 | 146 | 1.6 | 3.2 | 0.00 | 0.00 | 0.00 | 69 | 1010.8 |
| 20260505041358 | 15 | 140 | 0.0 | 1.6 | 0.00 | 0.00 | 0.00 | 60 | 1010.5 |
| 20260505040855 | 16 | 89 | 0.0 | 1.6 | 0.00 | 0.00 | 0.00 | 60 | 1010.6 |
| 20260505040353 | 16 | 129 | 0.0 | 0.0 | 0.00 | 0.00 | 0.00 | 60 | 1010.6 |
| 20260505035850 | 16 | 124 | 0.0 | 1.6 | 0.00 | 0.00 | 0.00 | 59 | 1010.4 |
| 20260505035345 | 16 | 175 | 1.6 | 3.2 | 0.00 | 0.00 | 0.00 | 58 | 1010.4 |
| 20260505034843 | 16 | 173 | 3.2 | 3.2 | 0.00 | 0.00 | 0.00 | 58 | 1010.4 |
| 20260505034339 | 16 | 132 | 0.0 | 3.2 | 0.00 | 0.00 | 0.00 | 58 | 1010.3 |
| 20260505033837 | 16 | 171 | 1.6 | 3.2 | 0.00 | 0.00 | 0.00 | 57 | 1010.1 |
| 20260505033333 | 17 | 164 | 3.2 | 3.2 | 0.00 | 0.00 | 0.00 | 56 | 1010.2 |
| 20260505032832 | 17 | 159 | 3.2 | 4.8 | 0.00 | 0.00 | 0.00 | 56 | 1010.3 |
| 20260505032328 | 16 | 129 | 1.6 | 3.2 | 0.00 | 0.00 | 0.00 | 58 | 1010.1 |
| 20260505031825 | 16 | 313 | 0.0 | 3.2 | 0.00 | 0.00 | 0.00 | 60 | 1010.2 |
| 20260505031321 | 16 | 70 | 1.6 | 3.2 | 0.00 | 0.00 | 0.00 | 60 | 1010.1 |
| 20260505030819 | 17 | 18 | 1.6 | 3.2 | 0.00 | 0.00 | 0.00 | 56 | 1010.2 |
| 20260505030315 | 17 | 148 | 0.0 | 3.2 | 0.00 | 0.00 | 0.00 | 55 | 1010.1 |
| 20260505025810 | 17 | 145 | 1.6 | 4.8 | 0.00 | 0.00 | 0.00 | 53 | 1010.1 |
| 20260505025308 | 17 | 176 | 3.2 | 3.2 | 0.00 | 0.00 | 0.00 | 54 | 1010.1 |
| 20260505024806 | 18 | 157 | 0.0 | 3.2 | 0.00 | 0.00 | 0.00 | 53 | 1010.2 |
| 20260505024303 | 18 | 187 | 3.2 | 4.8 | 0.00 | 0.00 | 0.00 | 53 | 1010.2 |
| 20260505023801 | 17 | 113 | 0.0 | 0.0 | 0.00 | 0.00 | 0.00 | 56 | 1010.2 |
| 20260505023257 | 17 | 287 | 1.6 | 3.2 | 0.00 | 0.00 | 0.00 | 56 | 1010.3 |
| 20260505022755 | 18 | 203 | 3.2 | 4.8 | 0.00 | 0.00 | 0.00 | 51 | 1010.3 |
| 20260505022252 | 18 | 152 | 3.2 | 3.2 | 0.00 | 0.00 | 0.00 | 51 | 1010.3 |
| 20260505021748 | 18 | 173 | 4.8 | 4.8 | 0.00 | 0.00 | 0.00 | 50 | 1010.5 |
| 20260505021246 | 19 | 217 | 3.2 | 9.7 | 0.00 | 0.00 | 0.00 | 50 | 1010.5 |
| 20260505020741 | 18 | 188 | 4.8 | 8.0 | 0.00 | 0.00 | 0.00 | 50 | 1010.3 |
| 20260505020237 | 17 | 180 | 3.2 | 4.8 | 0.00 | 0.00 | 0.00 | 52 | 1010.4 |
| 20260505015734 | 17 | 173 | 0.0 | 3.2 | 0.00 | 0.00 | 0.00 | 54 | 1010.4 |
| 20260505015231 | 17 | 269 | 0.0 | 0.0 | 0.00 | 0.00 | 0.00 | 55 | 1010.4 |
| 20260505014728 | 18 | 126 | 0.0 | 4.8 | 0.00 | 0.00 | 0.00 | 53 | 1010.4 |
| 20260505014225 | 18 | 135 | 0.0 | 1.6 | 0.00 | 0.00 | 0.00 | 53 | 1010.5 |
| 20260505013722 | 19 | 188 | 3.2 | 6.4 | 0.00 | 0.00 | 0.00 | 51 | 1010.3 |
| 20260505013219 | 19 | 191 | 4.8 | 6.4 | 0.00 | 0.00 | 0.00 | 49 | 1010.3 |
| 20260505012717 | 19 | 184 | 3.2 | 6.4 | 0.00 | 0.00 | 0.00 | 50 | 1010.3 |
| 20260505012214 | 20 | 193 | 4.8 | 9.7 | 0.00 | 0.00 | 0.00 | 48 | 1010.4 |
| 20260505011710 | 20 | 167 | 6.4 | 6.4 | 0.00 | 0.00 | 0.00 | 48 | 1010.2 |
| 20260505011208 | 20 | 193 | 6.4 | 9.7 | 0.00 | 0.00 | 0.00 | 48 | 1010.1 |
| 20260505010702 | 20 | 163 | 4.8 | 8.0 | 0.00 | 0.00 | 0.00 | 48 | 1010.0 |
| 20260505010200 | 20 | 186 | 3.2 | 8.0 | 0.00 | 0.00 | 0.00 | 48 | 1010.0 |
| 20260505005655 | 20 | 146 | 4.8 | 6.4 | 0.00 | 0.00 | 0.00 | 48 | 1009.9 |
| 20260505005153 | 20 | 157 | 6.4 | 8.0 | 0.00 | 0.00 | 0.00 | 47 | 1009.8 |
| 20260505004650 | 20 | 170 | 4.8 | 8.0 | 0.00 | 0.00 | 0.00 | 47 | 1010.0 |
| 20260505004146 | 20 | 180 | 4.8 | 8.0 | 0.00 | 0.00 | 0.00 | 46 | 1009.8 |
| 20260505003644 | 20 | 161 | 4.8 | 6.4 | 0.00 | 0.00 | 0.00 | 46 | 1009.7 |